Location: Newark
(30.1000°N, 109.4667°E)
Time: 13:27:05
(UTC+00:00)

Transit 2A - All Passes

Search period start: 17 February 2020 00:00
Search period end: 27 February 2020 00:00
Orbit: 600 x 959 km, 66.7° (Epoch: 16 February)

Date Brightness Start Highest point End Pass type
(mag) Time Alt. Az. Time Alt. Az. Time Alt. Az.
17 Feb - 06:36:18 10° SSW 06:40:40 75° WNW 06:44:59 10° NNE daylight
17 Feb - 15:27:42 10° N 15:32:00 25° ENE 15:36:37 10° ESE night (unlit)
17 Feb - 17:10:17 10° NW 17:15:09 36° WSW 17:20:26 10° S night (unlit)
18 Feb - 06:02:15 10° SSW 06:06:35 63° ESE 06:10:51 10° NNE daylight
18 Feb - 14:54:22 10° NNE 14:57:44 17° ENE 15:01:17 10° E night (unlit)
18 Feb - 16:35:52 10° NW 16:41:04 55° WSW 16:46:48 10° S night (unlit)
19 Feb - 05:28:32 10° S 05:32:32 35° ESE 05:36:29 10° NE daylight
19 Feb - 07:13:14 10° W 07:15:43 15° NW 07:18:15 10° NNW daylight
19 Feb - 14:21:58 10° NE 14:23:24 11° NE 14:24:51 10° ENE night (unlit)
19 Feb - 16:01:39 10° NNW 16:06:59 85° WSW 16:12:52 10° SSE night (unlit)
20 Feb - 04:55:13 10° SSE 04:58:32 21° ESE 05:01:47 10° ENE daylight
20 Feb - 06:37:57 10° WSW 06:41:27 24° WNW 06:44:58 10° N daylight
20 Feb - 15:27:35 10° NNW 15:32:51 63° ENE 15:38:39 10° SE night (unlit)
20 Feb - 17:13:02 10° WNW 17:15:40 13° WSW 17:18:23 10° SW night (unlit)
21 Feb - 04:22:45 10° SE 04:24:33 12° ESE 04:26:21 10° E daylight
21 Feb - 06:03:11 10° SW 06:07:14 38° WNW 06:11:19 10° N daylight
21 Feb - 14:53:42 10° N 14:58:42 41° ENE 15:04:10 10° SE night (unlit)
21 Feb - 16:37:35 10° WNW 16:41:39 21° WSW 16:45:59 10° SSW night (unlit)
22 Feb - 05:28:46 10° SSW 05:33:05 67° WNW 05:37:25 10° NNE daylight
22 Feb - 14:20:00 10° N 14:24:31 28° ENE 14:29:23 10° ESE night (unlit)
22 Feb - 16:02:48 10° NW 16:07:37 33° WSW 16:12:50 10° S night (unlit)
23 Feb - 04:54:39 10° SSW 04:58:59 71° ESE 05:03:18 10° NNE daylight
23 Feb - 13:46:34 10° NNE 13:50:16 19° ENE 13:54:10 10° E night (unlit)
23 Feb - 15:28:20 10° NW 15:33:34 51° WSW 15:39:16 10° S night (unlit)
24 Feb - 04:20:52 10° S 04:24:56 40° ESE 04:28:59 10° NE daylight
24 Feb - 06:06:01 10° W 06:08:12 14° NW 06:10:25 10° NNW daylight
24 Feb - 13:13:45 10° NNE 13:15:56 12° NE 13:18:11 10° ENE visible
24 Feb - 14:54:05 10° NNW 14:59:28 78° WSW 15:05:24 10° SSE night (unlit)
25 Feb - 03:47:28 10° SSE 03:50:56 23° ESE 03:54:22 10° NE daylight
25 Feb - 05:30:34 10° WSW 05:33:54 21° WNW 05:37:17 10° N daylight
25 Feb - 14:19:59 10° NNW 14:25:21 69° ENE 14:31:15 10° SSE night (unlit)
25 Feb - 16:05:54 10° W 16:08:07 12° WSW 16:10:23 10° SW night (unlit)
26 Feb - 03:14:43 10° SE 03:16:58 14° ESE 03:19:10 10° ENE daylight
26 Feb - 04:55:43 10° SW 04:59:41 35° WNW 05:03:41 10° N daylight
26 Feb - 13:46:04 10° N 13:51:12 45° ENE 13:56:49 10° SE visible
26 Feb - 15:30:12 10° WNW 15:34:07 20° WSW 15:38:16 10° SSW night (unlit)
